This is the latest recevied weather packets stored in our database for station/object KH6DH-13. If no packets are shown the sender has not sent any weather packets the latest 10 day(s).
| Time | Temp. | Humidity | Pressure | Rain* | Wind** | Luminosity | Snow |
|---|---|---|---|---|---|---|---|
| 1778010732 | 26.67° C | - | - | 0 mm | 1.34 m/s, 101° | - | - |
| 1778010131 | 26.67° C | - | - | 0 mm | 1.79 m/s, 127° | - | - |
| 1778009530 | 26.11° C | - | - | 0 mm | 1.34 m/s, 158° | - | - |
| 1778008929 | 25.56° C | - | - | 0 mm | 0.45 m/s, 128° | - | - |
| 1778008328 | 25.56° C | - | - | 0 mm | 2.68 m/s, 128° | - | - |
| 1778007727 | 26.11° C | - | - | 0 mm | 0.89 m/s, 198° | - | - |
| 1778007126 | 25.56° C | - | - | 0 mm | 0.89 m/s, 162° | - | - |
| 1778006522 | 25.56° C | - | - | 0 mm | 0.89 m/s, 52° | - | - |
| 1778005921 | 25° C | - | - | 0 mm | 1.34 m/s, 114° | - | - |
| 1778005320 | 25° C | - | - | 0 mm | 2.24 m/s, 145° | - | - |
| 1778004719 | 25° C | - | - | 0 mm | 0.45 m/s, 121° | - | - |
| 1778004118 | 24.44° C | - | - | 0 mm | 0.45 m/s, 156° | - | - |
| 1778003517 | 24.44° C | - | - | 0 mm | 0.45 m/s, 107° | - | - |
| 1778002916 | 23.89° C | - | - | 0 mm | 0.45 m/s, 38° | - | - |
| 1778002315 | 24.44° C | - | - | 0 mm | 0 m/s | - | - |
| 1778001712 | 23.89° C | - | - | 0 mm | 0 m/s | - | - |
| 1778001111 | 23.89° C | - | - | 0 mm | 0 m/s | - | - |
| 1778000510 | 23.33° C | - | - | 0 mm | 0 m/s | - | - |
| 1777999909 | 23.33° C | - | - | 0 mm | 0 m/s | - | - |
| 1777999308 | 23.33° C | - | - | 0 mm | 0 m/s | - | - |
| 1777998707 | 23.33° C | - | - | 0 mm | 0 m/s | - | - |
| 1777998106 | 23.33° C | - | - | 0 mm | 0.45 m/s, 65° | - | - |
| 1777997505 | 23.33° C | - | - | 0 mm | 0.45 m/s, 90° | - | - |
| 1777996904 | 23.33° C | - | - | 0 mm | 0 m/s | - | - |
| 1777996303 | 23.33° C | - | - | 0 mm | 0.89 m/s, 110° | - | - |
* Rain latest hour (hover to see other rain measurements)
** Current wind speed in m/s (hover to see current wind gust speed)